When you browse on this site, cookies collect data to enhance your experience and personalize the content and advertising you see.
Visit our Privacy Policy to learn more. By continuing to use the site, you agree to this use of cookies and data.
  • In Hungary
  • List of Countries
  • For 7 days
  • Water Temperature
  • Weather Map
  • News
  • Weather Widgets
  • user-avatar
    Login

    Hourly Weather Bihać

    Today, 29 May, Friday

    Time Temperature Precipitation Wind Pressure Humidity
    00:00 +9°C° 0 mm 3 mps 713 mmHg 89%
    01:00 +9°C° 0 mm 3 mps 713 mmHg 90%
    02:00 +8°C° 0 mm 3 mps 713 mmHg 90%
    03:00 +8°C° 0 mm 3 mps 713 mmHg 91%
    04:00 +7°C° 0 mm 3 mps 713 mmHg 91%
    05:00 +8°C° 0 mm 3 mps 713 mmHg 87%
    06:00 +9°C° 0 mm 3 mps 713 mmHg 83%
    07:00 +10°C° 0 mm 4 mps 713 mmHg 79%
    08:00 +11°C° 0 mm 4 mps 713 mmHg 75%
    09:00 +12°C° 0 mm 4 mps 714 mmHg 71%
    10:00 +13°C° 0 mm 4 mps 714 mmHg 66%
    11:00 +14°C° 0 mm 3 mps 714 mmHg 63%
    12:00 +16°C° 0 mm 3 mps 713 mmHg 61%
    13:00 +16°C° 0 mm 3 mps 713 mmHg 58%
    14:00 +17°C° 0 mm 3 mps 713 mmHg 58%
    15:00 +17°C° 0 mm 3 mps 712 mmHg 57%
    16:00 +17°C° 0 mm 3 mps 712 mmHg 57%
    17:00 +16°C° 0 mm 3 mps 712 mmHg 65%
    18:00 +14°C° 0 mm 2 mps 711 mmHg 73%
    19:00 +13°C° 0 mm 2 mps 711 mmHg 81%
    20:00 +12°C° 0 mm 2 mps 711 mmHg 85%
    21:00 +10°C° 0 mm 2 mps 711 mmHg 88%
    22:00 +9°C° 0 mm 3 mps 711 mmHg 91%
    23:00 +9°C° 0 mm 3 mps 711 mmHg 91%

    Tomorrow, 30 May, Saturday

    Time Temperature Precipitation Wind Pressure Humidity
    00:00 +8°C° 0 mm 3 mps 711 mmHg 91%
    01:00 +8°C° 0 mm 3 mps 711 mmHg 92%
    02:00 +8°C° 0 mm 3 mps 711 mmHg 92%
    03:00 +8°C° 0 mm 3 mps 710 mmHg 92%
    04:00 +8°C° 0 mm 3 mps 710 mmHg 92%
    05:00 +8°C° 0 mm 3 mps 710 mmHg 87%
    06:00 +9°C° 0 mm 3 mps 710 mmHg 82%
    07:00 +10°C° 0 mm 3 mps 711 mmHg 77%
    08:00 +12°C° 0 mm 3 mps 711 mmHg 68%
    09:00 +13°C° 0 mm 3 mps 711 mmHg 60%
    10:00 +16°C° 0 mm 3 mps 711 mmHg 52%
    11:00 +16°C° 0 mm 3 mps 711 mmHg 50%
    12:00 +17°C° 0 mm 3 mps 711 mmHg 48%
    13:00 +17°C° 0 mm 3 mps 711 mmHg 47%
    14:00 +17°C° 0 mm 3 mps 711 mmHg 48%
    15:00 +17°C° 0 mm 3 mps 710 mmHg 49%
    16:00 +17°C° 0 mm 3 mps 710 mmHg 50%
    17:00 +14°C° 0 mm 3 mps 710 mmHg 57%
    18:00 +13°C° 0 mm 3 mps 710 mmHg 63%
    19:00 +12°C° 0 mm 2 mps 710 mmHg 70%
    20:00 +10°C° 0 mm 2 mps 710 mmHg 73%
    21:00 +9°C° 0 mm 2 mps 710 mmHg 76%
    22:00 +7°C° 0 mm 2 mps 711 mmHg 79%
    23:00 +7°C° 0 mm 2 mps 710 mmHg 79%

    Day after tomorrow, 31 May, Sunday

    Time Temperature Precipitation Wind Pressure Humidity
    00:00 +7°C° 0 mm 2 mps 710 mmHg 79%
    01:00 +6°C° 0 mm 2 mps 710 mmHg 79%
    02:00 +6°C° 0 mm 2 mps 710 mmHg 79%
    03:00 +6°C° 0 mm 2 mps 710 mmHg 79%
    04:00 +6°C° 0 mm 2 mps 710 mmHg 79%
    05:00 +8°C° 0 mm 2 mps 710 mmHg 73%
    06:00 +10°C° 0 mm 2 mps 710 mmHg 67%
    07:00 +12°C° 0 mm 2 mps 710 mmHg 61%
    08:00 +14°C° 0 mm 2 mps 710 mmHg 55%
    09:00 +16°C° 0 mm 2 mps 710 mmHg 50%
    10:00 +18°C° 0 mm 1 mps 711 mmHg 44%
    11:00 +17°C° 0 mm 2 mps 710 mmHg 46%
    12:00 +17°C° 0 mm 2 mps 710 mmHg 48%
    13:00 +17°C° 0 mm 3 mps 710 mmHg 50%
    14:00 +17°C° 0 mm 3 mps 709 mmHg 51%
    15:00 +17°C° 0 mm 3 mps 709 mmHg 53%
    16:00 +17°C° 0 mm 3 mps 709 mmHg 55%
    17:00 +15°C° 0.1 mm 2 mps 709 mmHg 65%
    18:00 +14°C° 0.1 mm 2 mps 708 mmHg 75%
    19:00 +12°C° 0.1 mm 1 mps 708 mmHg 85%
    20:00 +12°C° 0 mm 1 mps 708 mmHg 86%
    21:00 +11°C° 0 mm 1 mps 708 mmHg 87%
    22:00 +11°C° 0 mm 1 mps 709 mmHg 87%
    23:00 +11°C° 0.1 mm 1 mps 708 mmHg 87%

    1 June, Monday

    Time Temperature Precipitation Wind Pressure Humidity
    00:00 +11°C° 0.1 mm 1 mps 708 mmHg 87%
    01:00 +11°C° 0.1 mm 1 mps 708 mmHg 87%
    02:00 +11°C° 0.1 mm 1 mps 708 mmHg 88%
    03:00 +11°C° 0.1 mm 1 mps 708 mmHg 88%
    04:00 +10°C° 0.1 mm 1 mps 707 mmHg 89%
    05:00 +11°C° 0.5 mm 1 mps 707 mmHg 90%
    06:00 +11°C° 0.5 mm 1 mps 708 mmHg 91%
    07:00 +10°C° 0.5 mm 2 mps 708 mmHg 92%
    08:00 +12°C° 0.2 mm 2 mps 708 mmHg 88%
    09:00 +12°C° 0.2 mm 3 mps 708 mmHg 83%
    10:00 +13°C° 0.2 mm 4 mps 708 mmHg 78%
    11:00 +14°C° 0.2 mm 4 mps 708 mmHg 78%
    12:00 +14°C° 0.2 mm 4 mps 708 mmHg 78%
    13:00 +14°C° 0.2 mm 4 mps 708 mmHg 77%
    14:00 +14°C° 0.1 mm 4 mps 708 mmHg 74%
    15:00 +15°C° 0.1 mm 4 mps 708 mmHg 71%
    16:00 +15°C° 0.1 mm 4 mps 708 mmHg 68%
    17:00 +14°C° 0.1 mm 3 mps 708 mmHg 73%
    18:00 +13°C° 0.1 mm 3 mps 708 mmHg 78%
    19:00 +13°C° 0.1 mm 2 mps 708 mmHg 84%
    20:00 +12°C° 0 mm 2 mps 708 mmHg 87%
    21:00 +10°C° 0 mm 2 mps 708 mmHg 90%
    22:00 +9°C° 0 mm 2 mps 708 mmHg 93%
    23:00 +9°C° 0 mm 2 mps 708 mmHg 92%

    2 June, Tuesday

    Time Temperature Precipitation Wind Pressure Humidity
    00:00 +8°C° 0 mm 2 mps 708 mmHg 92%
    01:00 +8°C° 0 mm 2 mps 708 mmHg 92%
    02:00 +9°C° 0 mm 2 mps 707 mmHg 92%
    03:00 +9°C° 0 mm 2 mps 707 mmHg 93%
    04:00 +9°C° 0 mm 2 mps 707 mmHg 93%
    05:00 +10°C° 0 mm 2 mps 708 mmHg 90%
    06:00 +12°C° 0 mm 2 mps 708 mmHg 88%
    07:00 +12°C° 0 mm 3 mps 708 mmHg 85%
    08:00 +12°C° 0 mm 3 mps 708 mmHg 82%
    09:00 +13°C° 0 mm 3 mps 708 mmHg 78%
    10:00 +14°C° 0 mm 3 mps 709 mmHg 75%
    11:00 +16°C° 0.1 mm 3 mps 709 mmHg 69%
    12:00 +17°C° 0.1 mm 3 mps 709 mmHg 63%
    13:00 +19°C° 0.1 mm 3 mps 709 mmHg 56%
    14:00 +19°C° 0.1 mm 3 mps 708 mmHg 58%
    15:00 +18°C° 0.1 mm 3 mps 708 mmHg 59%
    16:00 +18°C° 0.1 mm 3 mps 708 mmHg 60%
    17:00 +17°C° 0.1 mm 2 mps 707 mmHg 67%
    18:00 +16°C° 0.1 mm 2 mps 707 mmHg 75%
    19:00 +15°C° 0.1 mm 2 mps 707 mmHg 82%
    20:00 +13°C° 0 mm 2 mps 707 mmHg 85%
    21:00 +12°C° 0 mm 1 mps 707 mmHg 88%
    22:00 +11°C° 0 mm 1 mps 707 mmHg 91%
    23:00 +11°C° 0 mm 1 mps 707 mmHg 91%

    3 June, Wednesday

    Time Temperature Precipitation Wind Pressure Humidity
    00:00 +10°C° 0 mm 1 mps 707 mmHg 91%
    01:00 +10°C° 0 mm 1 mps 706 mmHg 91%
    02:00 +10°C° 0 mm 1 mps 706 mmHg 91%
    03:00 +9°C° 0 mm 1 mps 706 mmHg 91%
    04:00 +9°C° 0 mm 1 mps 706 mmHg 90%
    05:00 +11°C° 0 mm 1 mps 706 mmHg 86%
    06:00 +13°C° 0 mm 1 mps 707 mmHg 82%
    07:00 +15°C° 0 mm 1 mps 707 mmHg 77%
    08:00 +18°C° 0 mm 1 mps 708 mmHg 70%
    09:00 +20°C° 0 mm 1 mps 708 mmHg 62%
    10:00 +22°C° 0 mm 1 mps 709 mmHg 55%
    11:00 +22°C° 0.1 mm 1 mps 708 mmHg 57%
    12:00 +22°C° 0.1 mm 1 mps 708 mmHg 59%
    13:00 +21°C° 0.1 mm 1 mps 708 mmHg 61%
    14:00 +21°C° 0.5 mm 1 mps 708 mmHg 64%
    15:00 +21°C° 0.5 mm 1 mps 708 mmHg 68%
    16:00 +21°C° 0.5 mm 1 mps 707 mmHg 72%
    17:00 +19°C° 0.3 mm 1 mps 707 mmHg 77%
    18:00 +18°C° 0.3 mm 1 mps 707 mmHg 82%
    19:00 +15°C° 0.3 mm 0 mps 707 mmHg 86%
    20:00 +14°C° 0 mm 0 mps 707 mmHg 88%
    21:00 +13°C° 0 mm 0 mps 708 mmHg 90%
    22:00 +12°C° 0 mm 0 mps 708 mmHg 92%
    23:00 +11°C° 0 mm 0 mps 708 mmHg 92%
    Show more